Hayward, WI

12:52 AM CDT on June 25, 2017 (GMT -0500)
Sawyer County

Weather History for KHYR - March, 2014

Change the Weather History Date:

Monday, March 24, 2014

  Actual Average Record
Temperature  
Mean Temperature 7 °F -  
Max Temperature 27 °F 47 °F 69 °F (2012)
Min Temperature -13 °F 24 °F -13 °F (2014)
Degree Days  
Heating Degree Days 58    
Moisture  
Dew Point 1 °F    
Average Humidity 61    
Maximum Humidity 84    
Minimum Humidity 40    
Precipitation  
Precipitation 0.00 in - - ()
Sea Level Pressure  
Sea Level Pressure 30.21 in    
Wind  
Wind Speed 3 mph (West)    
Max Wind Speed 13 mph    
Max Gust Speed 22 mph    
Visibility 9 miles    
Events Snow    
Averages and records for this station are not official NWS values.
T = Trace of Precipitation, MM = Missing Value Source: NWS Daily Summary

Daily Weather History Graph

Daily Weather History Graph

Search for Another Location

Airport or City:

Trip Planner

Search our weather history database for the weather conditions in past years. The results will help you decide how hot, cold, wet, or windy it might be!

Date:

Astronomy

Mar. 24, 2014 Rise Set
Actual Time 7:01 AM CDT 7:23 PM CDT
Civil Twilight 6:31 AM CDT 7:53 PM CDT
Nautical Twilight 5:55 AM CDT 8:29 PM CDT
Astronomical Twilight 5:19 AM CDT 9:05 PM CDT
Moon 2:49 AM CDT (3/24) 12:31 PM CDT (3/24)
Length of Visible Light 13h 22m
Length of Day
12h 22m
Last Quarter, 43% of the Moon is Illuminated
Mar 24
Last Quarter
Mar 30
New
Apr 7
First Quarter
Apr 15
Full
Apr 22
Last Quarter

Hourly Weather History & Observations

Time (CDT) Temp. Windchill Dew Point Humidity Pressure Visibility Wind Dir Wind Speed Gust Speed Precip Events Conditions
12:53 AM -5.1 °F - -11.0 °F 76% 30.39 in 10.0 mi Calm Calm - N/A   Clear
1:53 AM -7.1 °F - -13.0 °F 75% 30.38 in 10.0 mi Calm Calm - N/A   Clear
2:53 AM -8.0 °F - -14.1 °F 75% 30.37 in 10.0 mi Calm Calm - N/A   Clear
3:53 AM -9.9 °F - -17.0 °F 71% 30.36 in 10.0 mi Calm Calm - N/A   Clear
4:53 AM -11.0 °F - -18.0 °F 71% 30.35 in 10.0 mi Calm Calm - N/A   Clear
5:53 AM -11.9 °F - -18.9 °F 71% 30.33 in 10.0 mi Calm Calm - N/A   Clear
6:53 AM -13.0 °F - -20.0 °F 71% 30.35 in 10.0 mi Calm Calm - N/A   Clear
7:53 AM -11.0 °F - -17.0 °F 75% 30.33 in 10.0 mi Calm Calm - N/A   Clear
8:53 AM 3.0 °F -4.4 °F -0.9 °F 84% 30.32 in 10.0 mi South 3.5 mph - N/A   Clear
9:53 AM 15.1 °F 6.4 °F 5.0 °F 64% 30.30 in 10.0 mi Variable 5.8 mph - N/A   Clear
10:35 AM 19.0 °F 11.1 °F 6.1 °F 57% 30.20 in 10.0 mi Variable 5.8 mph - N/A   Mostly Cloudy
10:53 AM 19.0 °F 8.2 °F 7.0 °F 59% 30.28 in - West 9.2 mph - N/A   Overcast
11:03 AM 19.0 °F 8.2 °F 7.0 °F 59% 30.19 in - West 9.2 mph - N/A   Overcast
11:53 AM 19.9 °F 10.1 °F 8.1 °F 60% 30.26 in 10.0 mi West 8.1 mph - N/A   Overcast
12:19 PM 21.0 °F 12.4 °F 9.0 °F 60% 30.16 in 10.0 mi Variable 6.9 mph - N/A   Overcast
12:53 PM 21.9 °F 9.8 °F 9.0 °F 58% 30.23 in 10.0 mi West 12.7 mph 17.3 mph 0.00 in   Overcast
1:53 PM 23.0 °F 13.9 °F 8.1 °F 53% 30.20 in 10.0 mi West 8.1 mph 17.3 mph N/A   Overcast
2:53 PM 25.0 °F 19.3 °F 7.0 °F 46% 30.16 in 10.0 mi Variable 4.6 mph - N/A   Overcast
3:53 PM 25.0 °F 14.8 °F 10.9 °F 55% 30.13 in 6.0 mi West 10.4 mph 20.7 mph 0.00 in Snow Light Snow
4:02 PM 25.0 °F 18.1 °F 14.0 °F 63% 30.04 in 2.0 mi Variable 5.8 mph 17.3 mph 0.00 in Snow Light Snow
4:09 PM 26.1 °F 17.6 °F 14.0 °F 60% 30.04 in 4.0 mi West 8.1 mph - 0.00 in Snow Light Snow
4:53 PM 27.0 °F 19.5 °F 10.0 °F 49% 30.11 in 7.0 mi Variable 6.9 mph 21.9 mph 0.00 in Snow Light Snow
5:53 PM 25.0 °F 14.8 °F 10.9 °F 55% 30.11 in 4.0 mi West 10.4 mph 20.7 mph 0.00 in Snow Light Snow
6:53 PM 24.1 °F 17.0 °F 6.1 °F 46% 30.10 in 10.0 mi West 5.8 mph - 0.00 in   Partly Cloudy
7:53 PM 21.9 °F 17.2 °F 1.0 °F 40% 30.09 in 10.0 mi Variable 3.5 mph - N/A   Clear
8:53 PM 19.9 °F 14.9 °F 1.9 °F 46% 30.08 in 10.0 mi Variable 3.5 mph - N/A   Partly Cloudy
9:53 PM 19.9 °F 14.9 °F 3.0 °F 48% 30.07 in 10.0 mi West 3.5 mph - N/A   Overcast
10:53 PM 18.0 °F 7.7 °F 10.0 °F 71% 30.08 in 9.0 mi WNW 8.1 mph - 0.00 in   Mostly Cloudy
11:53 PM 16.0 °F 5.3 °F 1.9 °F 54% 30.09 in 10.0 mi WNW 8.1 mph - N/A   Clear